Location: Colossi of Memnon
(25.7167°N, 32.6167°E)
Time: 03:31:42
(UTC+00:00)

MOS 1 Rocket - Pass Details

Date: 05 March 2021
Orbit: 615 x 829 km, 97.4° (Epoch: 21 April)

Event Time Altitude Azimuth Distance (km) Brightness Sun altitude
Rises 03:09:56 0° 168° (SSE) 2,868 6.6 -14.1°
Reaches altitude 10° 03:12:05 10° 168° (SSE) 1,967 5.8 -13.6°
Maximum altitude 03:16:21 89° 86° (E) 626 3.0 -12.7°
Drops below altitude 10° 03:20:44 10° 349° (N) 2,024 5.6 -11.7°
Sets 03:22:58 0° 349° (N) 2,959 6.4 -11.2°
